Meridian, MS

7:54 PM CST on November 18, 2017 (GMT -0600)
Key

Weather History for KMEI - December, 2013

Change the Weather History Date:

Thursday, December 5, 2013

  Actual Average Record
Temperature  
Mean Temperature 74 °F 49 °F  
Max Temperature 82 °F 61 °F 82 °F (2013)
Min Temperature 66 °F 37 °F 18 °F (2006)
Degree Days  
Heating Degree Days 0 16  
Month to date heating degree days 23 78  
Since 1 July heating degree days 524 528  
Cooling Degree Days 9 0  
Month to date cooling degree days 16 0  
Year to date cooling degree days 2057 2029  
Growing Degree Days 24 (Base 50)    
Moisture  
Dew Point 67 °F    
Average Humidity 78    
Maximum Humidity 100    
Minimum Humidity 55    
Precipitation  
Precipitation T in 0.17 in 1.56 in (1950)
Month to date precipitation T 0.92  
Year to date precipitation 59.92 52.02  
Sea Level Pressure  
Sea Level Pressure 29.95 in    
Wind  
Wind Speed 9 mph (SSW)    
Max Wind Speed 20 mph    
Max Gust Speed 24 mph    
Visibility 9 miles    
Events Rain    
T = Trace of Precipitation, MM = Missing Value Source: NWS Daily Summary

Daily Weather History Graph

Daily Weather History Graph

Search for Another Location

Airport or City:

Trip Planner

Search our weather history database for the weather conditions in past years. The results will help you decide how hot, cold, wet, or windy it might be!

Date:

Astronomy

Dec. 05, 2013 Rise Set
Actual Time 6:41 AM CST 4:49 PM CST
Civil Twilight 6:14 AM CST 5:16 PM CST
Nautical Twilight 5:44 AM CST 5:46 PM CST
Astronomical Twilight 5:14 AM CST 6:16 PM CST
Moon 9:06 AM CST (12/5) 8:04 PM CST (12/5)
Length of Visible Light 11h 01m
Length of Day
10h 07m
Waxing Crescent, 11% of the Moon is Illuminated
Dec 5
Waxing Crescent
Dec 9
First Quarter
Dec 17
Full
Dec 25
Last Quarter
Jan 1
New

Hourly Weather History & Observations

Time (CST) Temp. Heat Index Dew Point Humidity Pressure Visibility Wind Dir Wind Speed Gust Speed Precip Events Conditions
12:58 AM 69.1 °F - 66.9 °F 93% 29.93 in 10.0 mi South 6.9 mph - N/A   Overcast
1:29 AM 66.2 °F - 66.2 °F 100% 29.94 in 10.0 mi SSW 6.9 mph - N/A   Mostly Cloudy
1:58 AM 66.9 °F - 66.0 °F 97% 29.93 in 8.0 mi SSW 5.8 mph - N/A   Mostly Cloudy
2:20 AM 68.0 °F - 66.2 °F 94% 29.94 in 10.0 mi South 10.4 mph - N/A   Overcast
2:27 AM 68.0 °F - 66.2 °F 94% 29.94 in 10.0 mi South 9.2 mph - N/A   Overcast
2:35 AM 68.0 °F - 66.2 °F 94% 29.94 in 9.0 mi South 9.2 mph - N/A   Overcast
2:58 AM 68.0 °F - 66.0 °F 93% 29.93 in 8.0 mi South 6.9 mph - N/A   Overcast
3:06 AM 68.0 °F - 66.2 °F 94% 29.94 in 8.0 mi South 6.9 mph - N/A   Overcast
3:41 AM 68.0 °F - 66.2 °F 94% 29.94 in 8.0 mi South 6.9 mph - N/A   Overcast
3:49 AM 68.0 °F - 66.2 °F 94% 29.94 in 8.0 mi South 6.9 mph - N/A   Overcast
3:58 AM 68.0 °F - 66.9 °F 96% 29.93 in 9.0 mi South 9.2 mph - N/A   Overcast
4:58 AM 68.0 °F - 66.9 °F 96% 29.96 in 8.0 mi SSW 5.8 mph - N/A   Overcast
5:10 AM 68.0 °F - 66.2 °F 94% 29.97 in 8.0 mi SSW 5.8 mph - N/A   Overcast
5:37 AM 68.0 °F - 66.2 °F 94% 29.98 in 8.0 mi South 4.6 mph - N/A   Overcast
5:58 AM 68.0 °F - 66.9 °F 96% 29.97 in 8.0 mi South 5.8 mph - N/A   Overcast
6:10 AM 68.0 °F - 66.2 °F 94% 29.98 in 8.0 mi South 5.8 mph - N/A   Overcast
6:58 AM 68.0 °F - 66.9 °F 96% 29.99 in 6.0 mi SSW 4.6 mph - N/A   Overcast
7:58 AM 69.1 °F - 68.0 °F 96% 30.00 in 7.0 mi South 6.9 mph - N/A   Overcast
8:26 AM 69.8 °F - 68.0 °F 94% 30.02 in 10.0 mi South 6.9 mph - N/A   Overcast
8:58 AM 72.0 °F - 69.1 °F 91% 30.01 in 10.0 mi SW 4.6 mph - N/A   Overcast
9:01 AM 71.6 °F - 69.8 °F 94% 30.02 in 10.0 mi SSW 6.9 mph - N/A   Scattered Clouds
9:58 AM 75.0 °F - 68.0 °F 79% 30.01 in 10.0 mi SSW 11.5 mph - N/A   Overcast
10:58 AM 78.1 °F - 66.9 °F 68% 29.99 in 10.0 mi SW 12.7 mph - N/A   Mostly Cloudy
11:10 AM 78.8 °F - 66.2 °F 65% 29.99 in 10.0 mi SSW 12.7 mph 23.0 mph N/A   Mostly Cloudy
11:58 AM 80.1 °F 82.1 °F 66.0 °F 62% 29.96 in 10.0 mi SSW 15.0 mph - N/A   Partly Cloudy
12:58 PM 82.0 °F 83.8 °F 64.9 °F 56% 29.92 in 10.0 mi SSW 12.7 mph - N/A   Clear
1:58 PM 81.0 °F 82.7 °F 64.9 °F 58% 29.90 in 10.0 mi SSW 13.8 mph - N/A   Mostly Cloudy
2:58 PM 80.1 °F 82.1 °F 66.0 °F 62% 29.90 in 10.0 mi SSW 11.5 mph - N/A   Mostly Cloudy
3:58 PM 78.1 °F - 66.0 °F 66% 29.91 in 10.0 mi South 13.8 mph - N/A   Scattered Clouds
4:58 PM 75.9 °F - 66.9 °F 74% 29.93 in 10.0 mi South 9.2 mph - N/A   Overcast
5:58 PM 73.0 °F - 66.9 °F 81% 29.93 in 10.0 mi South 6.9 mph - N/A   Mostly Cloudy
6:58 PM 73.0 °F - 69.1 °F 87% 29.94 in 10.0 mi South 9.2 mph - N/A   Scattered Clouds
7:38 PM 71.6 °F - 69.8 °F 94% 29.95 in 10.0 mi South 9.2 mph - N/A   Mostly Cloudy
7:58 PM 73.0 °F - 69.1 °F 87% 29.94 in 10.0 mi South 9.2 mph - N/A   Overcast
8:58 PM 72.0 °F - 69.1 °F 91% 29.95 in 10.0 mi South 9.2 mph - N/A   Overcast
9:58 PM 73.0 °F - 69.1 °F 87% 29.96 in 10.0 mi South 12.7 mph - 0.00 in Rain Light Rain
10:58 PM 72.0 °F - 69.1 °F 91% 29.96 in 10.0 mi South 10.4 mph - 0.00 in   Overcast
11:54 PM 71.6 °F - 69.8 °F 94% 29.96 in 10.0 mi South 8.1 mph - N/A   Overcast
11:58 PM 72.0 °F - 69.1 °F 91% 29.95 in 10.0 mi South 8.1 mph - N/A   Overcast